Theta_e
326 325 324 325 327 327 327 327 326 326 325 326 325 325 325 325 325 325 325 324 324 324 324 323 323 323 323 322 322 323 323 323 323 323 322 322 322 322 322 322 322 322 322 322 321 321 321 321 321 321 321 321 322 323 322 321 321 321 320 320 320 319 319 318 318 318 318 317 316 316 315 315 315 315 315 314 315 314 313 313 313 313 313 313 312
326 325 324 325 326 326 327 327 327 327 327 327 327 326 327 326 326 326 326 325 326 326 325 325 325 325 325 325 325 324 324 325 324 324 323 323 323 323 323 323 323 322 322 322 322 321 321 320 320 321 321 321 321 322 322 322 322 322 322 322 321 321 320 320 319 319 319 318 318 317 317 316 316 316 315 315 315 315 314 314 314 314 314 313 313
325 324 325 326 326 326 327 327 327 327 327 327 327 327 327 327 327 326 326 326 326 326 325 325 325 325 325 325 325 325 325 325 324 324 323 323 323 323 323 323 322 322 322 321 321 321 321 321 321 321 322 322 322 322 322 323 323 323 323 323 322 322 322 322 321 320 319 319 319 318 318 317 317 316 316 315 315 315 315 315 314 314 314 314 313
323 324 324 326 326 327 327 327 327 328 328 328 328 327 327 327 327 326 326 326 326 325 325 324 324 324 324 324 324 324 324 324 324 324 324 324 323 324 323 323 323 323 322 321 321 321 321 322 322 322 322 322 322 322 323 323 323 323 323 323 323 323 323 323 322 322 321 320 320 319 318 318 318 317 317 316 316 316 315 315 315 315 314 314 314
322 323 324 325 326 326 326 327 327 328 328 328 328 328 327 327 326 326 326 326 325 324 324 324 324 324 324 324 324 324 324 324 324 324 323 323 323 323 324 324 324 323 322 321 321 322 322 322 323 323 323 323 322 322 322 322 323 323 323 323 323 323 323 323 323 322 322 322 322 321 321 320 320 319 318 318 317 316 316 316 316 315 315 314 314
322 322 323 324 325 325 325 326 327 327 327 328 328 328 327 326 326 326 326 325 324 323 323 324 325 325 324 324 324 324 324 324 324 323 322 322 322 322 322 323 323 324 323 322 322 322 322 322 323 323 323 323 322 321 321 321 321 322 322 323 323 323 323 323 324 323 323 323 322 322 322 322 321 321 320 320 319 318 317 317 316 316 315 315 315
322 322 322 322 323 323 324 325 325 326 326 327 328 327 326 326 326 326 325 324 323 323 322 323 323 323 324 324 323 323 324 324 324 323 322 323 323 322 320 319 321 323 324 323 323 322 322 322 323 323 323 323 322 321 321 320 320 320 321 322 322 322 322 322 323 323 324 324 323 323 322 322 322 322 322 321 321 320 319 318 318 317 316 316 315
322 322 321 321 322 323 324 324 324 325 325 326 326 326 326 326 326 325 325 324 323 321 322 324 324 324 325 324 322 323 324 323 322 321 321 322 322 321 319 318 320 322 323 323 323 322 322 323 323 323 323 322 321 321 321 321 321 321 321 322 322 322 321 321 322 323 324 324 324 324 323 323 323 323 322 322 322 321 321 320 319 319 318 317 317
324 323 321 320 322 323 324 323 323 324 325 325 325 325 324 324 325 325 325 324 321 322 324 325 325 324 323 321 320 322 322 321 321 320 320 321 321 320 319 320 322 323 323 322 322 321 322 323 323 323 323 322 322 322 322 322 321 322 322 322 322 322 321 321 321 322 323 323 323 324 324 323 323 323 323 323 322 321 322 322 321 320 319 318 318
325 325 323 321 321 321 322 322 322 322 324 324 324 324 324 323 324 324 323 321 320 321 322 322 322 320 320 319 319 320 320 321 321 320 319 320 321 320 320 321 322 323 322 321 320 320 321 322 322 322 322 322 322 322 322 322 322 322 322 321 321 321 321 320 320 320 321 322 323 323 323 323 323 323 323 323 323 322 322 321 321 321 321 319 319
326 326 325 324 323 322 322 322 322 322 322 323 323 322 322 321 322 321 321 320 321 321 320 320 321 320 321 321 321 321 320 319 319 318 318 319 321 321 321 321 322 322 321 320 319 319 321 321 321 321 322 322 322 321 321 321 322 322 321 321 320 320 321 320 320 320 319 320 320 320 320 321 321 322 322 322 323 323 322 322 321 321 321 320 320
325 326 325 325 325 324 324 323 324 324 322 321 321 321 321 320 320 322 323 323 323 323 322 321 321 321 321 321 322 323 322 319 318 319 320 321 321 321 320 319 319 320 320 319 317 316 319 320 320 321 321 322 321 321 320 320 320 321 321 320 320 320 320 320 320 320 319 319 318 318 318 319 320 320 321 322 322 322 322 322 322 320 320 319 319
326 326 326 326 326 326 325 325 325 325 323 321 322 324 322 320 321 324 325 325 325 324 322 321 320 320 321 322 323 324 324 320 319 322 323 322 321 320 319 318 318 318 318 319 318 317 317 318 319 319 319 320 320 320 320 320 320 320 320 320 320 320 320 320 319 319 319 319 319 319 318 318 318 318 319 320 321 321 321 322 321 320 320 320 319
326 325 326 326 326 326 325 325 325 325 324 322 324 327 324 321 323 325 326 326 326 324 321 321 322 322 323 324 325 325 323 320 320 322 321 320 319 319 319 319 318 317 318 319 319 319 318 317 317 318 318 319 319 319 318 319 319 319 319 318 318 318 318 318 318 317 318 318 318 318 318 317 317 317 318 318 318 318 319 320 320 319 320 319 319
324 324 324 324 324 325 325 325 324 325 324 323 325 328 324 322 323 325 326 325 325 325 323 322 323 324 325 325 325 324 321 320 320 320 318 318 318 318 318 318 317 317 318 319 319 319 319 317 315 314 315 316 316 316 315 315 315 316 315 315 314 314 314 315 314 315 316 316 316 317 317 317 316 316 317 317 317 316 317 317 318 318 319 319 319
323 325 325 323 324 325 325 325 324 323 324 324 325 327 323 321 323 325 326 326 326 326 324 322 324 325 325 324 323 322 321 320 319 318 318 319 318 317 317 316 314 315 316 317 316 316 315 314 313 313 313 313 313 313 313 313 313 313 313 312 313 312 312 313 313 313 313 313 314 314 315 316 315 315 316 317 317 316 316 316 316 316 317 318 318
324 325 324 325 326 325 324 323 322 323 324 324 325 325 323 323 325 325 326 327 326 325 324 324 325 325 324 323 321 321 320 319 319 319 320 319 318 317 315 313 312 313 313 313 313 313 312 312 311 311 311 311 311 311 311 312 312 312 312 311 312 312 312 311 311 312 311 312 312 312 314 315 315 315 315 315 315 315 315 316 316 316 316 316 315
323 323 324 324 326 328 326 322 321 325 326 326 327 326 326 326 326 327 326 326 325 324 325 325 324 323 323 321 319 319 320 320 320 320 319 318 317 317 315 312 311 311 311 311 311 311 310 310 310 309 309 309 309 310 310 310 311 311 310 310 310 310 310 310 310 311 310 311 311 311 312 314 314 314 314 314 314 315 315 315 315 314 315 315 314
322 325 327 326 327 328 326 323 324 328 329 329 329 329 329 327 326 326 326 325 324 324 324 323 322 320 319 318 319 320 321 321 320 319 318 318 317 316 314 312 311 310 309 309 308 308 307 307 307 307 306 306 306 306 307 307 307 307 307 307 307 307 307 307 308 308 309 310 310 310 311 311 311 311 312 313 313 313 313 313 313 313 313 313 313
323 326 328 326 327 327 326 327 329 328 328 329 329 329 327 324 322 321 321 321 320 320 321 321 319 316 316 318 320 321 320 319 319 317 316 316 315 313 311 310 310 308 306 306 304 303 303 303 302 302 302 302 301 301 302 302 302 301 301 301 301 301 301 301 302 303 305 307 308 309 310 310 310 310 311 312 312 312 312 312 312 312 312 311 311
321 324 326 324 324 326 325 326 325 322 322 324 324 324 321 318 316 317 317 316 315 315 316 315 314 314 315 317 316 316 315 315 315 314 312 313 312 310 309 308 306 304 302 301 299 299 299 299 300 300 300 300 299 299 299 298 298 298 298 298 297 298 298 298 298 298 300 301 303 305 306 307 307 308 310 311 312 311 311 312 312 311 311 310 310
319 321 323 321 320 321 320 321 319 318 317 318 318 317 316 314 313 313 313 312 312 311 311 311 311 312 313 313 312 312 312 311 311 311 310 311 310 308 306 304 301 300 299 298 297 298 298 298 298 299 299 298 298 298 298 297 297 297 297 297 297 297 297 297 297 297 297 297 298 299 300 301 303 304 306 308 310 310 311 311 310 311 310 309 311
319 320 320 318 317 317 316 316 315 315 315 314 313 313 313 312 312 312 311 311 311 311 311 311 311 311 311 311 311 310 310 310 309 308 308 307 306 303 300 299 298 298 298 298 297 298 298 298 298 298 298 298 297 297 297 297 297 297 297 297 296 296 296 296 296 296 296 296 296 296 296 297 297 299 300 303 306 309 310 309 309 310 309 309 310
319 320 319 316 315 314 313 313 312 312 312 312 312 312 312 312 311 311 311 310 310 310 310 310 309 310 309 309 308 307 307 306 305 303 302 301 300 298 297 296 297 297 298 297 297 298 297 297 297 297 297 297 297 297 297 297 296 296 296 296 296 296 296 296 296 296 296 296 296 295 295 295 295 295 295 298 304 308 308 308 309 309 308 309 310
320 319 317 315 313 313 313 312 312 312 312 312 312 311 311 311 310 310 309 308 308 307 307 306 306 305 305 304 303 302 301 300 299 298 298 297 296 296 296 296 296 297 297 297 297 297 297 297 297 297 297 297 296 296 296 296 296 296 296 296 296 295 295 295 295 295 295 295 295 295 295 295 294 295 294 296 303 307 306 306 306 306 306 307 308
320 317 315 313 312 312 312 312 312 312 311 311 311 310 310 309 308 307 306 305 305 304 303 302 301 301 300 299 299 298 298 297 297 296 296 296 296 295 296 296 296 297 297 297 297 297 297 297 296 296 296 296 296 296 296 296 296 296 295 295 295 295 295 295 295 295 295 295 295 294 294 294 294 294 293 294 299 303 302 302 301 301 303 306 307
317 315 314 313 312 312 312 312 312 311 311 310 309 308 307 306 305 304 303 303 302 301 300 300 299 298 298 297 297 297 297 296 296 296 296 295 295 295 295 295 295 296 297 297 297 297 297 296 296 296 296 296 296 295 295 295 295 296 295 295 295 295 295 295 295 295 295 295 294 294 294 294 294 294 294 293 295 296 296 295 295 296 299 302 303
314 313 312 312 312 312 312 311 310 310 309 308 307 306 304 304 303 302 302 301 300 299 299 298 298 298 297 297 297 296 296 296 296 295 295 295 295 295 294 293 293 294 295 296 296 296 296 296 295 295 295 295 295 295 295 295 295 295 295 295 295 295 295 295 294 294 294 294 293 293 293 293 293 293 294 294 294 294 293 294 294 294 296 300 301
312 312 312 312 312 311 311 310 310 309 307 306 304 303 303 302 301 301 300 300 299 299 298 298 297 297 297 297 296 296 296 296 295 295 295 295 294 294 294 293 292 292 292 293 295 296 295 295 295 295 295 295 295 295 295 295 295 295 295 294 294 294 294 294 294 294 293 293 292 292 292 292 292 292 293 293 293 293 293 293 293 293 297 300 301
312 312 312 312 311 311 310 309 308 306 304 303 302 302 302 301 300 300 299 299 298 298 297 297 297 297 296 296 296 296 295 295 295 295 295 294 294 294 293 292 292 291 290 291 293 295 295 295 295 295 295 295 295 295 295 295 294 294 294 293 293 293 293 293 293 292 292 292 291 290 290 291 291 291 292 292 292 293 293 293 294 295 298 300 300
312 312 312 311 310 310 309 307 305 303 302 302 302 302 301 301 300 299 298 298 297 297 297 297 296 296 296 296 296 296 295 295 295 295 294 294 294 293 293 293 292 291 291 289 291 294 295 295 295 295 295 295 295 295 295 294 294 294 294 293 292 292 292 292 291 291 291 290 290 289 289 290 290 290 290 291 292 293 293 293 295 297 298 299 298
312 311 311 310 310 308 306 304 303 302 302 302 302 301 300 299 298 298 297 297 297 296 296 296 296 296 296 296 296 295 295 295 295 294 294 294 294 293 293 293 292 292 291 290 290 293 295 295 295 295 295 295 295 295 294 294 294 293 293 292 291 291 291 291 291 291 290 290 289 289 288 288 289 289 289 290 291 293 294 294 296 296 297 298 298
311 311 310 309 307 305 303 302 302 302 302 302 301 300 299 298 298 297 297 296 296 296 296 296 296 296 296 295 295 295 295 295 294 294 294 294 294 294 293 293 293 292 291 290 290 292 294 295 294 295 295 294 294 295 293 293 293 293 292 292 291 291 291 290 290 290 290 289 288 288 288 288 288 288 289 290 291 292 293 294 295 296 296 298 298
311 310 308 307 305 303 302 302 302 302 301 301 300 299 298 297 297 297 297 296 296 296 296 296 296 295 295 295 295 295 294 294 294 294 294 294 294 294 293 293 293 292 290 290 290 290 292 294 295 294 294 293 293 294 292 291 291 291 291 291 291 290 290 289 289 289 289 289 288 287 287 287 288 288 289 290 291 293 294 294 295 295 296 296 296
310 308 306 304 302 302 302 303 302 301 300 299 299 298 298 297 297 297 296 296 296 296 295 295 295 295 295 295 294 294 294 294 294 294 294 294 294 293 293 292 292 291 290 289 289 289 290 292 294 294 293 293 292 292 291 290 290 290 290 290 290 290 290 289 288 288 288 288 288 288 288 287 288 288 289 291 292 293 294 293 293 295 295 295 296
308 306 304 302 302 303 303 302 301 300 299 298 298 298 297 297 297 296 296 296 295 295 295 295 295 294 294 294 294 294 294 294 294 294 294 294 293 293 293 292 291 291 290 289 289 289 288 290 292 293 292 292 291 291 290 290 289 289 288 289 289 289 289 288 288 288 287 287 287 288 288 288 288 287 288 291 292 293 293 292 293 294 295 296 296
305 303 302 302 303 303 302 301 300 299 298 298 298 297 297 297 296 296 295 295 295 295 294 294 294 294 294 293 293 294 294 294 294 294 294 293 293 293 292 292 291 291 290 289 289 289 288 289 290 291 291 291 290 290 290 288 288 288 288 288 288 288 288 287 287 287 287 288 288 287 287 288 287 287 289 290 291 291 291 292 293 294 295 296 296
303 303 302 303 303 302 301 300 299 298 298 298 297 297 296 296 296 295 295 295 294 294 294 293 293 293 293 293 293 293 293 293 294 293 293 293 292 292 292 291 291 290 290 289 289 288 288 288 288 289 290 289 289 290 289 288 287 287 287 287 287 287 287 287 287 287 287 287 287 287 287 287 287 288 289 289 289 290 291 291 292 293 294 295 295
303 303 303 302 302 300 299 298 298 298 297 297 297 296 296 295 295 295 295 294 294 294 293 293 293 293 293 293 293 293 293 293 293 293 292 292 292 291 291 290 290 289 289 289 288 288 288 288 288 287 288 288 288 288 288 287 286 286 286 286 286 286 286 286 286 287 287 287 287 287 288 288 288 288 288 288 288 289 290 291 291 291 292 293 294
302 302 302 301 300 299 298 298 297 297 297 296 296 296 295 295 295 295 294 294 294 293 293 293 293 293 293 293 293 293 293 293 292 292 292 292 291 291 290 289 289 289 289 288 288 288 287 287 287 287 286 287 287 286 286 286 285 285 285 285 285 285 285 285 285 286 287 287 287 288 289 289 289 289 288 288 288 288 289 291 291 290 290 291 293
302 301 300 299 298 297 297 297 297 297 296 296 295 295 295 295 295 294 294 294 293 293 293 292 293 293 293 293 293 292 292 292 292 292 291 291 290 290 289 289 289 288 288 288 288 287 287 286 286 286 285 285 285 285 285 285 284 284 284 284 284 284 284 284 285 286 286 287 287 288 288 288 288 288 288 288 288 288 288 289 290 290 290 291 293
301 300 298 297 297 297 297 297 296 296 295 295 295 295 295 294 294 294 293 293 293 292 292 292 293 293 293 292 292 292 292 292 292 292 291 290 290 289 289 288 288 288 288 288 288 287 286 285 285 284 284 284 284 284 284 284 284 284 284 283 284 284 284 285 285 286 286 287 287 287 287 287 287 287 287 287 288 288 288 288 289 289 290 292 293
299 297 297 297 297 296 296 296 296 295 295 295 295 295 294 294 294 293 293 292 292 292 292 292 292 292 292 292 292 292 292 292 292 291 291 290 289 289 289 288 288 288 287 287 286 285 284 284 284 283 283 283 284 283 283 283 283 283 283 283 284 284 285 285 285 285 286 286 286 285 285 286 286 286 286 287 288 289 288 289 289 289 290 292 293
297 296 296 296 296 296 296 295 295 295 295 295 295 294 294 294 293 293 292 292 292 292 292 292 292 292 292 292 292 292 292 291 291 290 290 290 289 289 288 288 288 287 286 285 284 284 283 283 283 283 283 283 283 283 283 283 283 283 283 283 284 284 284 285 285 285 285 285 285 284 285 285 285 286 286 287 288 288 288 288 289 290 290 291 292
296 296 296 296 296 295 295 295 295 295 295 294 294 294 293 293 293 292 292 292 292 292 292 292 292 291 291 292 291 291 291 290 290 290 290 290 289 289 288 288 288 288 286 285 284 283 282 282 282 282 282 282 282 282 282 282 283 283 283 284 284 284 284 284 284 285 285 285 285 285 285 285 286 286 286 287 287 287 287 288 289 289 290 291 292
296 296 295 295 295 295 295 295 295 295 294 294 293 293 293 293 292 292 292 292 292 292 291 291 291 291 291 291 291 290 290 290 290 289 289 289 289 289 288 288 288 288 287 286 285 284 282 282 282 282 282 282 282 282 282 283 283 283 283 284 284 284 284 285 285 285 285 285 285 285 285 286 286 286 287 287 287 287 288 288 288 290 290 291 291
295 295 295 295 295 295 295 295 294 294 294 293 293 293 293 292 292 292 292 292 291 291 291 291 291 291 291 291 290 290 289 289 289 289 288 288 288 288 288 288 288 288 287 286 285 284 283 282 281 281 281 281 281 282 282 282 283 283 284 284 284 285 285 285 285 285 285 286 286 286 286 287 287 287 287 288 288 289 289 289 290 290 290 290 291
295 295 295 295 295 295 295 294 294 293 293 293 293 293 293 292 292 292 291 291 291 291 291 291 291 291 290 290 290 289 289 288 288 288 288 288 288 288 288 288 288 288 288 287 285 285 284 282 282 282 281 281 281 282 282 282 282 283 284 284 285 285 285 285 285 286 286 286 286 287 287 287 287 287 288 288 289 289 289 290 290 290 290 290 291
295 295 295 295 295 294 294 293 293 293 293 293 293 292 292 292 292 291 291 291 291 291 291 291 291 290 290 290 289 289 288 288 287 287 287 287 287 287 287 288 288 288 288 287 287 286 285 284 283 282 281 281 281 282 282 282 282 283 283 284 285 285 285 285 285 286 286 286 287 287 287 287 287 287 288 288 288 289 289 289 289 289 290 291 291
294 294 294 294 294 293 293 293 293 293 293 293 292 292 292 292 291 291 291 291 291 291 291 291 291 290 289 289 288 288 288 287 287 287 286 286 286 286 285 286 286 286 286 286 286 286 285 285 285 284 283 282 282 282 282 282 283 283 283 283 284 284 285 285 285 286 286 286 286 286 286 286 286 287 287 287 288 288 289 289 289 289 290 291 290
294 294 294 294 293 293 293 293 292 293 293 292 292 292 291 291 291 291 290 290 290 291 290 290 290 290 289 288 288 287 287 287 287 286 285 285 285 284 284 284 284 285 285 284 284 284 284 285 285 284 284 284 283 283 283 283 283 283 283 283 283 284 284 285 285 286 286 285 286 286 286 286 286 286 286 286 287 288 288 288 288 289 289 289 289
Wind_Speed
5 5 4 4 4 5 5 6 6 6 5 6 6 6 7 7 8 9 9 9 10 10 11 12 12 12 13 13 13 13 14 14 15 16 17 18 18 18 18 18 18 17 18 18 18 19 18 18 18 16 16 18 20 21 23 23 21 19 19 20 20 20 20 24 27 25 23 24 22 19 20 21 20 20 21 21 22 23 23 23 23 22 22 21 21
7 7 6 6 6 6 6 7 7 7 7 7 7 8 8 8 9 9 10 11 11 12 13 13 13 14 15 15 14 15 15 15 16 16 17 18 18 19 19 20 20 19 19 20 20 19 20 19 18 19 18 18 19 20 22 23 22 22 22 21 21 23 25 27 27 27 27 29 28 26 22 22 22 22 22 22 23 23 24 24 24 24 24 24 23
9 8 8 8 8 9 9 9 8 9 9 9 9 9 9 9 9 10 11 12 12 13 14 14 14 14 15 15 15 16 16 16 17 16 16 17 18 19 20 20 21 21 21 21 21 20 19 20 20 20 21 21 21 21 21 22 23 23 24 25 25 25 26 26 27 29 30 31 33 32 28 25 23 23 24 24 24 24 25 25 26 26 26 27 26
10 10 10 10 10 11 11 10 9 10 10 10 10 11 11 11 11 12 12 13 13 13 14 15 15 15 15 16 16 17 17 17 17 17 17 17 18 19 21 21 22 22 22 21 21 20 20 21 21 22 23 23 23 24 24 24 24 24 25 26 26 26 27 27 28 29 31 32 33 31 30 29 27 25 26 26 27 27 27 26 27 27 28 28 28
11 11 11 12 12 13 13 12 11 12 12 12 12 12 12 12 13 13 14 14 14 13 14 16 17 17 18 17 18 18 18 18 18 18 19 19 20 22 22 23 23 23 22 22 22 22 22 23 23 24 25 25 25 25 26 26 26 27 27 28 28 28 29 29 29 30 31 34 34 31 32 33 30 28 28 28 30 29 28 29 28 29 30 30 30
12 12 12 13 14 14 14 14 14 14 14 15 15 14 14 14 14 15 15 16 16 16 17 18 18 19 19 19 20 19 19 19 19 20 21 23 23 24 24 24 24 24 23 23 23 23 24 25 25 26 26 26 26 26 26 27 28 28 29 30 30 31 31 31 31 31 32 34 34 34 36 36 34 33 33 32 33 32 31 31 30 31 32 32 33
14 14 14 14 14 15 15 15 16 17 17 17 17 17 16 17 16 16 17 18 19 19 19 19 19 20 21 21 22 21 20 20 20 22 23 25 26 26 25 24 23 23 24 25 25 25 25 25 26 26 26 26 26 26 26 27 27 28 29 30 31 32 33 33 34 33 32 34 35 35 37 37 38 39 38 37 37 38 37 36 34 34 34 34 34
15 15 16 16 16 16 16 16 17 18 19 19 19 19 19 19 18 17 18 19 21 21 19 20 22 22 22 23 23 21 21 21 22 23 24 25 25 25 24 23 23 23 24 25 25 25 24 24 24 24 25 25 25 26 27 27 27 27 29 30 31 31 33 35 36 35 34 35 36 36 37 37 39 41 40 40 40 41 42 42 40 39 39 39 37
16 16 17 17 16 17 17 17 18 19 19 20 20 20 20 20 18 18 20 21 22 21 21 22 23 24 25 24 23 21 21 21 22 23 24 23 22 22 22 21 21 22 23 24 24 24 22 22 23 24 24 24 25 26 27 27 27 28 29 30 31 30 31 33 35 36 37 37 37 37 37 38 40 41 41 41 42 43 44 45 44 43 44 44 42
16 18 17 17 16 16 16 16 17 19 19 19 20 21 21 19 19 19 20 21 21 21 22 22 22 23 24 22 21 20 21 22 23 24 24 22 21 20 20 20 21 22 23 24 23 22 22 22 23 23 24 25 26 28 28 28 29 30 30 30 31 30 30 31 32 34 36 37 38 38 38 39 41 41 41 42 42 43 44 45 46 46 45 45 45
16 17 18 18 16 15 14 13 14 15 16 18 19 19 17 16 17 16 15 16 16 16 18 19 20 21 22 22 22 21 21 22 22 22 21 20 19 19 20 22 23 24 23 23 23 23 22 22 22 23 25 26 28 29 30 31 31 31 30 30 31 30 31 31 32 32 34 35 37 39 39 39 40 40 41 42 42 42 43 43 44 45 45 45 46
16 17 17 18 17 16 16 15 14 15 16 16 15 13 12 13 12 11 12 13 14 15 18 20 21 22 22 22 23 23 22 22 21 20 18 19 21 23 24 24 23 23 22 23 24 23 23 23 23 24 26 28 29 30 30 30 30 29 30 29 29 30 31 32 32 32 33 34 36 37 38 39 39 39 40 41 41 43 43 43 42 42 44 44 45
17 17 18 18 18 17 17 17 16 17 18 15 10 10 11 12 10 11 13 13 14 16 18 20 20 21 23 26 27 25 24 24 22 19 19 23 26 25 23 23 24 24 23 24 26 25 23 23 24 25 26 28 28 29 29 29 29 30 31 31 31 31 32 32 33 33 33 35 36 36 37 40 40 39 40 40 41 41 43 45 44 43 43 43 43
17 17 18 18 19 19 19 18 17 17 18 14 11 12 11 10 12 14 15 15 17 16 16 19 20 22 26 31 31 28 28 27 23 21 25 28 26 22 23 26 27 25 24 26 27 27 25 24 25 27 28 29 30 31 32 32 33 34 35 35 35 34 34 35 35 35 34 35 36 36 37 39 39 39 39 40 41 41 41 42 43 44 44 43 44
16 15 17 18 17 17 17 18 16 15 15 13 12 15 13 11 14 15 15 16 18 16 14 18 21 24 26 27 27 30 31 27 24 26 29 26 22 24 28 29 28 27 26 26 26 26 28 27 26 27 29 30 30 31 32 32 33 33 33 33 33 33 33 34 35 35 35 36 36 36 37 37 38 38 38 39 41 42 41 39 40 42 41 41 42
14 14 16 15 13 14 14 16 16 12 11 11 12 15 13 10 11 12 14 18 19 18 17 18 21 22 22 22 23 25 24 24 30 32 26 23 25 27 29 29 29 28 26 26 26 28 30 29 28 27 28 28 27 27 27 27 27 27 27 27 27 28 28 29 30 31 33 34 35 35 35 35 37 37 37 39 40 42 41 39 40 40 40 41 41
12 14 16 14 13 15 15 14 11 8 8 9 10 11 10 9 11 13 15 17 17 19 19 18 18 16 16 19 19 18 21 27 35 32 24 26 30 28 26 26 27 27 26 27 28 29 30 29 28 27 27 26 25 25 24 24 24 24 25 24 24 24 25 26 27 28 30 31 33 34 34 34 35 36 37 39 39 40 40 39 40 40 41 42 41
12 12 12 12 13 15 15 11 6 5 8 10 10 11 11 12 14 14 13 13 14 16 16 15 16 15 16 18 16 18 26 30 30 28 30 32 31 30 28 25 23 25 26 27 27 27 27 27 28 28 27 26 25 25 24 24 24 25 25 24 24 25 26 26 27 28 29 30 31 32 32 33 34 35 36 37 37 38 38 38 38 38 39 40 39
11 10 12 12 13 15 15 10 9 11 14 15 15 16 16 17 16 15 14 14 14 15 15 17 19 19 18 18 17 19 22 23 24 28 33 34 32 33 32 28 26 26 26 26 25 25 26 26 27 28 28 27 27 27 26 26 26 26 26 27 27 28 29 29 30 30 30 30 30 31 32 33 34 35 35 36 36 37 38 38 37 38 39 40 41
11 11 15 15 12 13 14 12 14 17 17 17 17 18 19 20 20 18 18 19 19 18 20 21 21 18 15 15 17 18 19 21 25 26 28 33 36 35 32 31 30 29 29 28 26 27 27 26 27 28 28 28 29 29 29 29 29 30 30 31 32 33 34 34 35 34 34 33 32 33 34 35 36 37 36 36 37 37 38 37 37 39 40 42 43
14 13 16 16 13 14 15 14 16 16 16 16 17 19 20 21 20 17 17 18 18 17 18 18 17 15 15 16 17 19 21 22 24 24 24 30 35 35 35 35 35 33 31 31 31 30 29 28 28 27 28 29 29 30 30 31 33 34 34 35 35 36 37 38 39 39 39 38 38 38 38 39 39 39 37 36 36 37 36 36 37 39 42 42 42
15 13 15 15 13 14 14 14 15 14 15 15 16 17 16 15 13 12 11 12 11 11 12 12 12 12 14 17 18 20 20 19 19 20 22 25 30 34 35 36 38 38 35 33 34 32 31 30 29 28 29 30 30 31 32 34 35 36 37 38 38 38 39 39 40 40 41 41 41 42 43 44 43 43 41 38 37 37 37 38 38 39 41 40 39
14 11 11 10 9 10 10 11 11 11 11 11 11 10 9 8 8 8 8 8 9 9 10 10 10 11 12 13 15 15 16 17 17 18 20 22 26 32 35 35 37 39 37 37 36 34 35 33 31 31 32 32 32 34 36 38 38 39 40 41 41 41 42 42 41 41 42 42 43 44 44 45 45 46 46 44 41 38 37 38 38 40 41 39 40
12 11 10 9 9 8 7 6 6 6 6 5 6 5 5 6 6 7 7 8 8 9 9 9 9 10 10 11 12 13 14 15 17 18 19 21 25 30 33 34 38 40 39 39 39 39 38 35 34 36 35 36 37 38 39 40 41 41 42 43 43 44 44 43 43 43 44 44 45 45 46 46 47 46 47 46 42 39 40 40 40 42 41 38 41
12 11 10 9 8 6 5 5 4 4 4 4 4 5 5 6 6 6 7 7 7 8 8 9 9 10 10 12 13 13 14 15 16 18 19 21 23 28 31 33 37 42 42 42 43 43 41 39 39 39 38 39 40 40 41 41 42 42 42 43 43 43 44 44 44 44 45 46 46 47 47 47 48 48 48 46 41 40 42 41 42 44 42 40 42
13 12 10 8 7 5 4 4 3 3 3 3 4 4 4 5 5 5 6 6 7 7 8 9 10 10 11 12 12 13 14 15 16 17 19 20 22 26 32 35 39 42 43 44 45 45 44 44 42 41 41 42 42 43 44 43 44 44 44 45 44 44 44 44 45 45 46 47 47 47 47 48 47 47 48 47 44 43 45 45 46 47 43 41 43
13 11 10 8 6 5 4 4 4 4 3 3 3 3 3 3 4 5 6 6 7 8 9 10 10 11 11 12 12 12 13 14 15 16 18 20 22 25 29 34 40 44 46 47 46 45 46 46 45 44 43 44 45 46 47 46 46 46 46 47 47 47 47 47 47 47 48 48 48 47 47 47 47 47 47 48 48 48 50 51 51 50 46 43 46
12 11 10 9 7 7 6 6 5 4 3 2 2 2 3 3 4 6 7 8 9 9 10 10 11 11 11 12 12 12 13 14 16 17 19 20 22 24 25 28 32 39 46 51 51 48 47 48 48 49 48 48 49 49 49 49 48 47 48 49 49 50 50 50 50 50 50 50 49 48 47 46 46 46 46 47 48 50 51 52 52 50 47 45 47
12 11 10 9 9 8 7 6 4 3 2 2 2 2 3 4 5 7 8 8 9 10 10 10 10 11 11 12 13 13 15 16 18 19 21 22 22 23 24 25 26 30 37 45 53 53 49 50 51 51 51 51 52 52 52 52 52 51 51 52 52 53 53 53 53 53 53 53 52 50 48 47 46 46 47 47 48 49 50 51 51 48 44 43 45
13 12 11 10 9 8 6 4 3 2 2 2 2 2 4 5 6 7 8 9 9 10 10 10 11 11 12 13 14 15 16 18 19 20 21 22 22 22 23 24 25 27 29 36 48 54 51 51 52 51 52 53 53 53 54 54 53 54 54 55 55 55 55 55 55 55 54 54 53 51 50 50 48 48 49 50 50 51 50 49 47 44 42 42 42
12 12 11 10 8 7 5 5 4 4 3 2 2 4 5 6 7 8 9 9 10 10 10 11 12 12 14 15 16 17 18 19 20 20 21 21 23 23 25 26 26 27 29 31 42 52 52 51 53 53 52 54 56 56 56 56 56 57 57 58 58 58 57 57 56 55 54 54 52 50 50 49 49 50 50 51 51 51 50 48 43 41 41 42 42
13 12 11 9 8 7 6 6 5 4 3 3 4 5 6 7 8 9 9 10 10 11 11 12 13 14 16 17 19 19 19 19 19 20 21 22 24 25 26 29 28 28 30 32 39 51 53 51 53 55 54 56 58 58 58 60 60 59 60 60 60 60 60 59 59 58 56 55 53 51 49 48 48 49 49 50 49 48 47 45 42 40 41 42 43
13 12 11 9 9 8 7 7 5 4 4 4 5 6 7 8 9 9 10 10 11 12 13 15 16 17 18 18 20 20 20 20 20 21 23 24 26 27 27 29 31 30 31 33 38 48 54 54 55 57 57 58 60 60 60 62 62 62 63 63 62 62 62 61 61 60 58 56 54 51 49 48 48 48 48 48 47 46 45 43 41 41 40 40 42
14 12 11 10 10 9 8 6 5 5 5 6 6 7 8 9 10 10 11 12 13 14 15 17 17 18 19 19 20 20 20 20 21 23 25 26 27 29 29 30 32 32 32 33 38 45 53 58 59 60 60 60 61 63 62 62 64 64 65 65 64 63 63 61 60 59 58 55 53 51 50 49 48 47 47 47 46 46 45 42 42 41 39 39 41
14 13 12 11 10 9 8 7 6 6 7 7 8 9 9 10 11 12 13 14 15 16 17 18 19 19 20 20 20 20 20 21 22 24 26 28 29 31 31 32 33 34 33 34 36 41 49 57 61 62 63 63 64 65 63 63 63 63 64 66 65 64 64 62 59 57 57 56 53 52 51 49 47 46 45 45 43 43 44 43 41 39 38 39 41
14 13 13 12 10 9 8 8 8 8 8 8 9 10 11 12 13 13 14 15 16 17 18 19 19 20 20 20 20 21 22 23 24 26 28 29 31 32 34 34 35 36 36 36 37 39 45 53 60 62 63 64 65 65 64 64 64 63 62 64 65 63 61 60 58 57 58 57 53 52 52 51 49 47 44 43 42 42 43 41 37 36 37 38 40
14 14 13 12 10 9 9 9 9 9 9 9 10 11 12 13 14 14 15 16 17 18 19 19 20 20 21 21 21 22 24 26 27 28 30 31 33 34 35 37 37 38 39 39 39 40 43 50 57 61 62 64 65 66 64 61 61 62 61 62 62 60 58 58 58 58 58 57 55 53 52 51 50 47 43 42 42 42 40 36 34 34 35 37 39
15 14 13 11 10 10 10 10 10 10 10 10 11 12 12 13 14 15 16 17 18 18 19 20 20 21 21 22 23 24 26 28 30 31 33 34 35 37 37 39 40 41 42 43 43 43 45 49 54 57 60 62 63 65 64 59 57 57 57 58 60 59 59 60 60 59 58 58 57 55 52 50 49 46 43 42 42 41 38 37 37 36 35 37 39
15 14 12 12 11 11 11 11 10 10 10 11 11 12 13 14 15 16 17 18 18 19 19 20 21 22 23 23 25 26 28 30 32 33 35 36 38 39 40 41 42 43 44 45 44 45 47 49 52 54 56 59 59 60 62 59 56 55 54 56 60 62 60 60 61 62 60 59 57 53 50 50 49 45 43 43 42 40 39 40 40 40 39 39 39
15 14 13 12 12 12 11 11 11 11 11 11 12 13 14 15 16 18 18 19 19 19 20 21 22 23 24 25 26 27 29 30 32 34 36 38 40 41 41 42 43 44 45 46 46 47 47 49 52 52 53 56 58 58 59 58 57 57 56 56 60 62 60 60 60 60 59 59 56 53 51 50 49 47 45 46 43 41 41 41 41 45 43 39 38
15 14 13 13 12 12 11 11 11 10 11 11 12 14 15 16 18 19 20 20 21 21 21 22 23 24 25 26 27 28 29 31 32 34 36 38 40 41 42 42 43 44 45 46 46 47 47 48 50 50 50 53 55 55 55 56 55 57 57 57 59 60 60 61 59 56 56 56 54 52 50 50 51 52 50 49 46 44 43 41 43 46 41 36 37
16 15 14 13 13 12 11 11 10 10 11 12 13 15 16 18 19 19 20 21 22 23 24 24 25 25 26 27 27 29 30 32 34 35 37 38 38 40 41 41 42 42 44 45 46 45 44 44 47 47 47 51 53 52 53 54 53 55 57 57 59 60 60 60 59 57 54 51 52 54 55 56 56 56 54 51 48 46 43 41 43 42 38 37 39
16 16 14 13 13 12 11 10 10 10 11 13 15 16 18 18 19 20 21 22 23 24 25 26 27 27 27 28 29 30 32 33 35 36 37 38 39 39 40 40 41 41 41 42 44 44 42 42 45 46 45 47 50 50 51 51 52 54 56 56 58 59 59 57 58 59 55 53 56 59 63 63 58 55 54 50 47 45 42 41 40 39 39 38 37
17 16 14 13 12 11 10 9 10 11 12 14 15 17 18 19 20 22 23 24 25 26 27 27 28 28 29 30 31 32 34 35 36 37 38 39 40 41 42 42 42 42 40 39 39 39 39 40 44 46 44 45 48 49 50 50 51 52 53 54 55 56 56 54 54 56 54 52 54 56 59 60 55 50 49 47 45 45 42 39 37 38 41 38 33
17 15 14 13 12 10 10 10 11 12 13 15 15 17 18 20 21 23 24 25 26 27 28 28 28 29 30 31 33 34 35 35 37 38 40 41 42 43 43 44 44 44 43 41 39 36 35 35 38 42 43 43 46 47 47 47 48 49 50 51 52 52 53 51 51 52 50 48 50 51 53 54 49 45 45 45 44 43 40 37 35 37 40 35 29
17 15 14 12 11 10 10 11 12 13 13 15 16 17 19 20 22 24 25 26 27 28 28 28 29 30 31 32 34 35 36 37 38 40 41 43 44 44 45 45 46 46 46 45 44 41 38 35 35 39 41 41 42 44 44 43 45 47 49 50 50 50 50 48 47 49 47 45 46 45 46 50 47 43 44 43 41 39 37 34 35 37 37 32 25
16 15 13 12 11 10 11 12 12 13 14 15 16 18 20 22 23 25 26 27 28 28 28 28 29 30 31 32 34 35 37 38 39 40 41 43 44 45 46 47 47 48 48 47 46 45 43 40 38 39 40 40 40 41 42 42 43 44 45 46 46 46 47 46 46 48 46 43 42 40 43 48 46 42 44 43 40 39 37 34 36 36 33 29 21
16 14 13 12 11 11 11 12 13 13 14 16 18 19 21 23 24 26 27 28 28 28 28 28 29 30 31 33 34 35 36 37 38 38 39 41 43 44 46 48 49 50 50 49 48 46 44 42 40 40 40 40 40 40 39 39 41 42 42 42 43 43 45 47 49 49 46 43 41 40 41 45 44 43 44 44 42 42 40 36 35 34 30 27 18
15 14 13 12 12 12 11 12 13 14 15 17 19 21 23 25 26 27 27 27 28 28 28 29 30 31 32 33 34 35 36 36 37 37 38 40 42 43 45 48 50 51 51 51 51 50 47 45 43 42 41 41 41 40 39 39 39 39 40 41 41 42 45 48 48 48 47 44 41 38 39 42 43 42 42 43 43 43 39 35 33 31 26 17 16
15 14 13 12 12 11 11 12 13 14 16 18 20 22 24 26 27 27 27 28 28 28 29 29 31 31 32 33 34 34 35 36 36 36 37 39 41 42 44 46 48 50 50 51 52 52 51 49 48 46 44 42 42 42 41 39 37 36 37 38 39 40 43 45 47 47 46 44 40 37 38 42 40 38 39 40 41 39 35 31 30 24 10 9 23
15 14 13 12 12 11 12 13 14 16 18 20 21 24 25 27 27 27 28 28 29 29 30 31 32 32 32 33 33 33 34 35 36 36 36 37 39 40 40 41 43 45 46 47 48 48 49 49 48 47 46 45 44 43 41 39 36 35 34 35 36 38 39 42 44 44 43 42 39 37 37 39 37 34 35 35 35 34 30 26 22 9 9 21 25
Wind_Direction
272 278 283 285 285 290 293 299 301 302 307 311 314 314 312 314 314 316 316 316 318 317 316 316 316 315 315 317 319 319 318 319 319 319 319 318 318 317 316 314 312 313 312 311 312 311 309 305 302 298 293 294 294 293 298 304 301 295 294 294 298 302 292 286 295 298 297 300 292 278 270 266 268 268 265 264 262 263 264 263 261 263 263 259 255
266 275 280 281 280 283 283 285 292 296 300 303 305 305 304 308 310 313 314 315 319 317 315 314 313 315 315 315 315 313 312 313 313 313 314 314 315 314 312 311 310 309 308 306 307 307 308 307 304 301 298 297 295 296 297 298 297 291 290 290 289 291 286 283 287 290 292 295 294 292 285 272 267 269 267 266 264 261 260 260 259 258 259 258 255
264 271 274 276 279 283 282 281 287 290 293 295 296 299 299 303 307 310 312 314 319 318 316 314 314 316 313 312 310 306 306 306 305 306 308 309 310 309 308 308 308 308 306 304 303 303 304 305 305 303 300 300 297 296 296 294 293 291 290 290 290 289 287 286 285 283 284 287 290 290 291 286 270 265 270 270 267 265 260 259 259 258 258 258 257
264 267 268 269 272 274 276 277 282 283 285 289 289 292 296 302 305 306 309 312 316 317 315 314 316 316 310 309 306 303 304 302 301 303 305 306 308 308 307 307 307 306 306 304 303 302 303 304 304 303 301 300 297 294 293 291 290 290 289 287 287 287 287 287 283 280 277 281 287 284 283 287 278 269 271 269 267 268 262 260 261 259 258 257 256
265 268 269 269 270 270 272 275 276 277 280 283 284 288 292 295 298 301 305 306 309 312 312 313 316 316 312 309 305 302 302 299 300 300 301 305 306 306 306 306 306 306 305 304 303 302 302 304 304 304 303 301 298 295 292 290 289 288 287 286 284 284 284 283 281 281 277 277 281 279 277 280 280 276 273 268 267 268 263 261 263 260 260 258 257
267 269 270 270 271 271 273 275 275 276 276 278 280 283 286 289 294 297 300 302 305 306 306 309 311 310 309 307 303 301 300 299 299 298 301 306 304 302 301 301 302 303 305 303 302 302 302 304 304 304 303 301 300 297 293 290 288 287 286 287 286 285 284 283 282 283 282 281 279 277 276 275 274 274 275 274 271 269 265 263 263 261 261 259 257
270 269 270 270 271 272 274 276 276 275 275 277 278 280 283 287 289 293 298 300 299 301 304 305 304 305 306 305 303 301 299 299 300 300 302 303 302 302 300 300 301 301 303 303 302 302 302 303 303 303 302 301 300 298 296 293 290 288 286 286 286 286 287 286 284 283 283 284 283 282 281 280 278 274 275 278 276 270 267 267 267 266 264 261 259
273 274 273 272 272 274 275 276 277 276 276 277 278 281 282 283 286 292 298 297 296 303 309 305 302 304 304 302 301 298 296 300 302 302 302 302 304 307 306 305 306 305 304 304 304 302 300 301 303 304 303 302 301 301 299 297 294 291 290 289 287 285 285 284 284 284 283 282 284 285 284 284 284 280 278 279 279 275 272 271 271 269 268 267 267
273 276 276 276 275 274 275 277 277 276 275 276 278 280 282 284 289 293 292 291 296 303 304 300 297 298 300 302 303 296 295 301 304 304 303 305 309 313 312 310 309 307 307 308 306 301 297 298 303 305 304 302 302 303 300 298 296 295 295 295 292 287 284 283 282 283 282 281 282 282 282 283 284 284 281 280 281 280 277 275 274 273 270 267 267
271 275 280 281 278 275 277 281 282 278 274 275 276 276 280 286 289 290 292 295 299 299 297 296 297 298 302 313 316 305 300 304 305 305 305 308 314 317 317 316 314 312 313 313 311 304 298 297 300 302 301 300 300 300 299 297 297 296 296 295 293 291 288 286 283 282 282 281 282 281 281 281 282 284 284 284 283 282 282 279 277 276 274 271 268
267 272 280 285 288 291 291 294 298 290 281 278 279 281 285 285 288 298 309 313 313 313 312 309 306 305 309 319 322 316 312 312 313 313 315 318 322 323 320 318 317 317 319 319 315 308 304 302 301 299 298 298 298 299 297 296 295 295 295 294 292 291 290 289 286 284 282 282 282 281 281 280 280 281 282 284 284 283 284 281 280 279 279 280 275
269 272 279 285 293 299 300 303 304 297 294 293 292 298 300 290 296 318 322 321 325 331 328 319 312 309 314 320 321 320 320 319 321 325 328 329 327 324 321 320 319 320 322 324 322 314 306 303 301 298 297 297 298 298 298 296 294 293 293 292 290 288 288 289 288 287 286 286 285 285 284 283 280 279 279 281 282 282 283 282 283 282 282 283 281
269 274 279 285 288 290 292 294 293 291 299 311 314 313 317 310 310 314 307 308 316 325 327 321 315 317 324 325 321 321 319 320 326 330 328 326 325 325 324 321 322 325 326 328 329 324 315 308 304 300 299 299 300 300 299 297 294 292 291 290 288 286 285 286 286 286 286 286 286 287 286 286 285 283 280 279 279 280 281 281 283 283 284 284 283
261 264 268 271 273 277 280 283 284 286 291 302 302 295 305 309 301 297 298 305 309 319 331 324 315 318 322 319 317 318 315 320 329 330 325 324 324 324 323 321 323 326 327 326 327 325 321 317 311 305 301 299 299 299 298 296 294 292 291 291 290 288 286 285 285 284 283 282 284 286 286 287 288 286 285 284 283 280 278 279 281 282 284 284 283
257 261 264 261 263 270 276 278 277 278 286 297 297 291 290 290 293 298 300 305 306 308 323 323 315 317 318 314 315 318 317 321 325 322 321 321 320 322 321 321 321 321 321 320 321 319 318 319 317 310 305 302 300 299 299 298 297 296 296 297 295 293 290 289 288 286 285 284 284 286 287 288 287 286 287 287 286 285 282 281 280 280 281 281 281
259 264 271 274 277 277 275 275 275 279 293 300 296 293 293 288 287 291 287 292 298 299 307 313 312 317 319 315 317 319 319 320 317 317 320 317 316 320 321 320 318 318 318 317 319 319 319 321 322 319 316 313 310 308 308 308 307 305 306 307 306 303 299 296 294 291 289 288 288 287 288 289 287 286 285 283 285 287 287 286 282 280 280 278 276
255 254 261 269 278 282 282 281 277 285 296 293 290 293 298 287 277 281 282 286 296 299 303 309 312 317 318 318 322 318 314 316 317 319 321 316 315 317 321 323 320 318 320 322 325 324 324 327 327 328 328 327 325 323 322 321 318 317 318 319 318 315 312 308 304 301 298 296 294 292 292 291 289 287 285 283 285 285 285 285 284 283 282 281 281
251 254 261 263 268 277 283 285 284 288 287 284 286 289 291 283 279 283 283 286 293 295 300 304 302 302 304 309 313 307 310 318 320 318 316 314 315 317 322 326 323 323 326 330 331 330 332 334 333 336 338 336 336 335 334 331 329 328 329 329 328 324 320 317 313 310 307 304 302 299 296 295 293 291 289 288 289 288 287 286 286 285 284 285 285
253 263 267 260 258 261 263 269 279 280 277 275 274 274 276 276 277 279 276 278 281 282 289 293 292 295 296 296 297 296 302 312 317 318 318 316 314 315 319 324 326 329 333 334 335 335 338 338 337 339 340 339 340 339 338 336 335 335 334 333 330 327 324 321 318 316 312 309 306 302 299 297 294 292 292 291 290 289 288 288 287 285 284 283 282
245 249 254 251 245 251 255 260 266 266 267 267 264 264 267 272 275 275 273 275 275 274 278 284 290 296 296 291 292 292 293 297 302 309 313 311 309 314 322 326 328 332 334 335 337 339 340 340 339 339 338 339 340 339 338 337 337 335 334 332 330 327 325 323 321 319 315 312 307 303 300 297 294 292 291 291 289 288 288 288 288 287 286 286 286
247 240 244 246 237 239 245 249 253 255 256 257 258 262 269 275 278 277 278 281 282 282 282 283 287 291 293 293 294 295 297 297 297 299 304 306 308 316 325 328 328 332 336 336 336 338 339 339 339 339 338 338 339 338 337 337 336 335 333 332 330 328 326 324 322 320 317 314 311 307 304 301 299 296 294 292 290 289 288 287 288 289 288 288 289
260 245 239 244 241 241 247 252 259 263 264 266 269 272 277 282 287 293 299 301 306 309 307 305 302 297 296 298 300 302 305 306 308 310 312 312 313 319 327 329 327 330 335 336 335 336 337 338 339 341 339 338 339 338 336 336 335 333 332 331 330 328 326 323 321 319 317 315 312 309 307 305 304 301 298 294 289 288 288 288 289 290 289 290 289
265 254 250 253 252 255 258 261 267 271 273 277 280 284 292 301 311 319 323 327 333 335 331 328 325 317 313 310 310 313 316 319 323 325 324 321 319 321 328 330 326 328 333 334 333 333 334 336 339 341 339 338 339 337 336 335 333 332 330 329 328 326 324 323 321 319 316 314 312 310 308 306 305 303 300 296 292 290 289 290 290 290 291 292 288
260 258 263 264 260 262 267 271 277 279 284 292 298 308 318 322 327 331 336 341 343 344 341 339 338 334 330 327 327 330 331 331 331 331 330 328 325 324 329 331 327 327 330 330 330 331 332 333 335 337 337 336 336 336 335 333 331 331 330 328 327 325 323 322 320 318 316 314 312 310 309 308 306 304 302 298 295 292 291 290 289 289 292 290 286
259 260 260 258 259 264 270 279 288 294 301 307 310 317 320 324 331 335 341 344 343 344 343 342 342 339 335 334 335 336 336 335 333 334 333 332 331 329 330 331 328 326 328 329 329 329 329 330 333 335 335 335 336 335 334 332 332 333 331 327 325 324 322 320 318 317 315 313 311 310 309 308 307 305 303 299 294 291 290 290 289 290 291 288 285
253 254 252 248 250 252 256 265 269 276 286 289 300 314 320 326 335 339 344 346 347 347 346 345 342 340 340 338 337 338 337 337 337 337 336 336 337 335 332 331 328 326 326 326 326 326 326 328 330 333 334 335 336 335 333 332 332 331 328 324 321 320 318 317 316 314 312 311 309 308 307 306 305 303 302 300 295 291 291 291 291 291 290 286 282
244 240 237 235 232 230 226 226 233 241 253 273 292 308 320 332 340 345 349 348 348 347 345 344 343 341 341 339 340 341 340 341 340 340 340 339 340 340 337 334 330 327 326 324 323 324 325 326 328 331 333 334 334 333 330 329 329 327 324 321 319 318 316 314 313 310 308 307 305 303 302 301 301 300 300 299 296 294 294 293 292 290 288 286 282
228 223 219 217 213 209 208 211 220 232 249 272 292 309 327 341 344 346 348 346 345 345 342 342 340 339 339 338 340 341 340 342 341 341 341 340 340 339 338 338 333 328 327 325 322 323 325 326 327 329 332 333 332 329 327 326 326 324 321 320 318 316 315 313 310 308 306 304 303 301 300 299 297 296 295 294 294 294 294 293 292 289 288 287 286
212 208 204 202 200 200 205 212 222 237 255 273 297 321 334 340 343 343 342 340 340 339 337 336 334 333 334 334 336 338 340 341 340 339 338 337 337 337 336 337 334 329 327 323 320 320 324 325 326 328 329 330 328 326 325 324 324 323 320 318 317 314 313 312 310 308 307 305 305 304 302 300 297 296 294 292 291 290 290 291 291 289 287 286 287
204 200 196 195 196 201 204 209 217 223 235 253 290 320 331 334 335 334 333 333 333 332 330 329 329 329 330 332 335 338 339 339 338 336 335 333 333 334 334 333 332 329 325 320 315 316 320 323 322 324 326 325 324 323 323 323 321 320 319 317 316 314 313 312 310 309 308 307 307 306 304 302 300 298 295 293 292 290 289 289 288 287 287 286 287
198 194 194 195 196 200 199 201 206 209 222 244 285 311 320 323 325 325 326 326 325 323 322 323 326 328 329 332 333 335 336 335 334 331 330 330 330 331 331 329 329 327 324 318 312 311 316 320 319 321 323 323 322 322 321 320 319 318 318 316 315 315 313 312 311 310 309 308 307 305 304 302 300 298 296 295 294 292 291 289 288 287 287 287 289
193 192 194 194 194 197 196 200 205 210 232 265 290 305 311 314 316 317 317 317 317 318 320 322 325 327 330 331 330 330 331 330 328 327 327 327 327 327 328 326 325 323 322 318 311 309 314 317 316 319 321 321 321 320 319 318 317 317 316 315 315 314 313 312 311 310 309 309 308 307 305 303 300 299 297 296 295 294 293 290 287 286 285 287 288
192 192 193 192 193 197 198 202 212 226 254 274 287 296 299 303 306 308 310 313 315 318 321 323 324 325 327 327 326 326 327 327 327 325 325 325 324 324 325 323 321 320 319 316 311 309 313 316 316 318 320 319 319 319 318 317 317 316 315 314 314 313 312 312 311 309 308 308 308 308 307 305 303 301 299 297 296 294 293 290 287 285 283 283 284
191 190 192 195 196 199 203 212 227 242 261 271 280 288 293 297 300 304 308 312 316 319 321 322 323 324 324 324 324 323 324 325 325 324 323 323 323 322 322 321 319 319 318 315 312 309 312 316 318 318 319 318 317 318 318 318 318 317 315 314 315 314 313 313 312 310 308 308 309 309 308 306 304 302 299 297 296 294 293 291 288 284 281 281 281
192 191 193 195 199 205 211 224 238 249 261 269 277 284 290 295 300 304 308 312 316 318 319 320 321 322 322 322 322 321 322 323 323 323 322 322 322 322 322 321 320 319 318 316 314 312 312 314 317 318 318 318 318 318 320 320 319 319 318 317 316 316 315 314 314 313 311 311 312 311 310 308 304 302 298 296 295 294 294 293 287 282 281 281 281
194 194 196 198 203 212 220 233 244 252 260 269 278 287 293 298 303 307 310 314 316 318 319 320 320 320 321 321 320 320 320 321 321 322 321 321 322 322 322 322 321 320 320 319 318 316 314 314 316 317 318 319 319 319 320 320 320 319 318 317 317 317 316 316 315 314 313 312 312 312 311 308 306 303 299 297 296 295 297 296 288 282 282 282 282
196 197 200 204 211 220 230 240 248 255 264 274 283 291 296 301 305 309 313 316 318 320 320 319 319 319 319 319 319 319 320 321 322 322 322 322 323 323 322 322 322 322 322 323 323 321 319 317 318 318 319 320 320 320 321 320 319 319 318 317 317 317 316 315 313 312 312 312 312 314 313 311 309 307 303 300 298 300 303 301 293 288 288 289 289
199 202 206 212 219 227 237 244 251 259 270 280 286 293 299 304 310 313 315 318 318 319 318 317 317 317 318 318 319 320 321 323 323 323 324 324 324 324 324 324 325 326 326 326 326 325 323 321 320 319 320 321 320 319 321 321 318 318 318 318 317 315 315 315 314 313 313 312 313 316 316 314 312 309 307 305 304 305 307 305 299 295 293 295 296
203 207 212 218 225 232 239 246 255 265 274 282 290 297 304 309 312 313 315 316 317 316 315 315 315 315 317 318 320 322 324 324 325 325 325 325 325 327 328 328 328 328 329 329 329 327 325 323 321 319 319 319 318 318 320 320 318 317 318 318 316 315 316 315 314 313 312 313 315 317 318 315 312 308 308 310 310 308 309 307 304 301 295 292 296
205 211 217 222 228 234 241 249 258 268 278 286 296 303 307 310 311 311 313 314 314 314 312 313 315 316 318 320 321 324 324 324 325 325 326 327 327 329 330 331 331 330 330 331 330 329 326 323 321 319 318 318 318 318 319 319 318 317 317 317 316 315 315 315 314 313 314 316 318 319 319 316 312 310 311 312 311 310 309 307 306 307 300 293 296
208 213 219 223 230 235 243 253 261 272 283 292 300 304 306 308 309 311 314 314 313 312 312 314 316 317 319 321 322 323 323 324 325 325 327 328 329 329 330 331 332 332 331 331 330 328 326 323 321 320 318 317 317 318 317 317 317 316 316 317 315 314 315 316 315 315 316 318 319 318 317 313 310 309 309 310 311 312 310 306 308 311 306 300 302
210 215 219 223 230 237 245 256 267 278 289 296 301 304 306 308 310 312 313 312 312 313 314 316 317 318 319 320 321 322 322 323 324 325 327 328 329 330 330 331 332 332 331 331 330 329 326 323 320 319 317 316 317 317 316 317 317 316 316 316 315 315 316 316 315 315 316 316 316 314 310 307 306 307 307 308 310 313 312 309 311 311 306 306 307
212 215 219 224 231 240 249 260 272 283 292 297 301 304 306 309 311 312 311 311 312 314 316 317 318 318 319 320 322 323 323 324 324 326 327 328 329 330 331 332 333 333 333 332 331 330 327 322 320 319 316 314 316 317 317 317 317 316 316 316 315 315 315 313 313 313 313 314 314 312 307 303 304 306 307 308 310 313 314 313 314 312 308 310 309
212 214 219 226 233 243 253 263 275 284 291 297 300 304 308 310 311 311 311 312 313 315 316 317 318 319 320 322 324 324 325 326 326 327 327 328 330 331 333 334 334 335 335 333 331 329 325 321 319 319 317 315 316 317 317 318 317 316 317 316 315 315 314 312 311 311 313 317 317 314 309 306 307 309 308 308 310 313 314 315 316 312 310 313 310
212 215 220 227 233 244 255 265 277 285 291 297 301 304 308 309 310 311 311 313 314 315 316 316 318 320 322 323 324 325 326 327 327 328 329 330 331 332 334 335 335 335 335 334 333 328 323 319 316 316 318 317 315 315 316 317 316 315 315 314 314 315 314 312 310 311 316 321 318 314 312 312 314 313 309 310 312 313 314 315 315 309 308 312 310
213 216 221 228 235 246 258 267 277 284 291 297 301 305 307 308 309 310 311 312 313 313 314 316 318 321 323 324 325 326 327 329 330 331 331 332 332 333 334 335 335 335 334 335 335 331 328 323 316 315 319 318 315 315 316 317 315 314 313 312 312 312 312 311 310 310 315 320 317 312 310 315 319 314 310 315 318 318 317 314 311 308 306 310 305
215 217 222 229 237 248 260 269 277 286 293 298 301 304 307 307 309 309 309 310 310 311 313 316 318 321 322 324 326 328 330 332 333 334 334 334 334 334 334 334 334 334 334 336 336 333 331 327 320 317 319 318 316 315 316 317 316 316 316 314 314 314 312 310 310 311 314 319 320 313 309 315 321 316 314 321 322 321 321 316 312 311 308 304 291
216 219 224 231 240 251 261 271 281 289 295 299 303 305 307 307 308 308 308 308 309 310 313 315 317 320 322 325 327 330 333 335 335 335 336 336 335 335 334 334 334 333 333 334 334 333 332 328 322 319 317 316 315 315 317 319 320 322 323 321 320 320 315 311 310 311 314 318 322 319 312 315 321 319 319 323 321 319 322 320 318 316 308 296 264
217 221 228 235 243 254 263 274 283 290 296 301 304 306 306 306 306 306 306 307 309 310 312 315 318 321 324 327 330 332 333 335 336 338 339 338 337 337 336 335 334 333 332 332 332 333 333 330 327 323 318 316 317 318 319 320 322 326 328 324 323 323 317 312 310 310 313 318 323 324 318 317 323 323 322 322 320 318 320 322 322 319 309 284 211
218 224 231 239 247 257 267 277 285 293 299 302 305 306 305 305 304 305 306 308 309 311 313 315 318 322 326 330 331 332 333 336 338 341 341 340 338 338 337 336 334 333 333 333 333 333 333 332 331 327 323 321 321 320 318 318 320 326 327 324 325 324 320 315 312 310 312 317 322 325 321 319 323 324 322 322 321 319 319 323 325 323 313 173 162
219 227 235 242 251 261 271 281 290 296 300 302 303 304 303 302 304 305 307 308 309 312 314 316 320 324 327 329 331 333 335 338 340 342 342 341 340 339 338 336 335 335 336 337 337 336 334 333 332 330 329 328 326 322 318 317 319 322 323 323 324 323 320 319 316 312 311 314 320 324 320 318 321 322 321 321 319 315 317 322 323 318 148 148 150